Location: Hungerford
(51.4167°N, 1.5167°W)
Time: 16:40:01
(UTC+00:00)

Cosmos 2298 Rocket - Pass Details

Date: 18 September 2020
Orbit: 777 x 783 km, 74.0° (Epoch: 30 October)

Event Time Altitude Azimuth Distance (km) Brightness Sun altitude
Rises 19:57:49 0° 193° (SSW) 3,259 7.1 -16.7°
Reaches altitude 10° 20:00:13 10° 190° (S) 2,335 6.3 -17.0°
Maximum altitude 20:05:27 64° 110° (ESE) 865 4.0 -17.8°
Drops below altitude 10° 20:10:44 10° 30° (NNE) 2,350 6.5 -18.5°
Sets 20:13:09 0° 27° (NNE) 3,282 7.3 -18.8°
